STARLINK-2029, 48320

Orbit data source: Space-Track

STARLINK-2029, 48320 is a payload satellite owned by SpaceX/Seattle (US) in LEO that was launched on Thu, 29 Apr 2021 UTC via an FALCON 9 launch vehicle from the Air Force Eastern Test Range (AFETR). Payload-class satellites include a variety of spacecraft equipped with specific instruments for various scientific and technological missions. These include communications satellites like Starlink; space stations such as the ISS; scientific satellites like the Hubble; Earth observation satellites from companies like Planet Labs, Umbra, and HawkEye 360; GPS; miniature CubeSats for education and research; and military/defense satellites.

Loading next visibility...
Identifier
48320, 2021-036AW
Orbit
LEO
Country
Flag of USUS
Related business
Manufacturer
SpaceX/Seattle
Mission
Operational Commercial Communications
Bus & Motor
STARLINK, Unknown motor
Mass
260 kg wet, ~248 kg dry
Launch date (UTC)
2021-04-29 (5 years ago)
Launch vehicle
FALCON 9
Launch site
Air Force Eastern Test Range (AFETR)
Object type
Payload
Rocket body
Debris
Shape & HBR
Box + 1 Pan, 10.1 m
Radar Cross Section
13.562 m², Large (>1 m²)

Expand to show TLE details & history
Last TLE update: 21 hours ago

TLE from 21 hours ago
0 STARLINK-2029
1 48320U 21036AW  25341.23071662 -.00000249  00000-0  21671-5 0  9999
2 48320  53.0539 156.6827 0001422  90.9651 269.1500 15.06394797254092
Epoch: 2025-12-07T05:32Z
TLE epoch observation values (Epoch: 2025-12-07T05:32:13.915Z)
Latitude
-0.00012°
Longitude
-2.62245°
Altitude
548.121 km
Speed
7.589 km/s
True Right ascension
10h 26m 43s
True Declination
0° 00' 00"
Sunlit
Object was in daylight at epoch
Visualization orbit readout
Latitude
Unknown
Longitude
Unknown
Altitude
Unknown
Speed
Unknown
Apparent Right ascension
Unknown
Apparent Declination
Unknown
Sunlit
N/A
Visualization observer readout
Local Sidereal Time
01:03:15
Azimuth
Unknown
Elevation
Unknown
Doppler factor
Unknown
Orbital elements
Apogee altitude
548.483 km
Perigee altitude
546.513 km
Semi-major axis
6,925.635 km
Eccentricity
0.00014
Inclination
53.0539°
RAAN
156.6827°
Arg. of periapsis
90.9651°
True anomaly
269.13371°
Mean anomaly
269.15°
Eccentric anomaly
269.14185°
Mean motion
3.76577 °/min
Orbital period
95.6 mins
BSTAR
0.0000021671
Loading maneuver chart data...
Computing Atmospheric mass density...
Loading historical data...
Loading historical data...
Loading historical data...
Loading historical data...
Loading historical data...
Loading historical data...
Loading historical data...

Documentation

Showing up to 5 results
|